Location: Shepherdstown, WV
(39.4326°N, 77.8042°W)
Time: 01:10:57
(UTC-04:00)

Vanguard 1 - All Passes

Search period start: 01 August 2021 00:00
Search period end: 11 August 2021 00:00
Orbit: 651 x 3831 km, 34.2° (Epoch: 31 July)

Date Brightness Start Highest point End Pass type
(mag) Time Alt. Az. Time Alt. Az. Time Alt. Az.
01 Aug - 11:15:12 10° SW 11:19:19 32° SSE 11:24:51 10° E daylight
01 Aug - 13:33:33 10° WSW 13:39:06 59° S 13:48:47 10° ESE daylight
01 Aug - 15:52:45 10° W 16:00:15 47° SSW 16:13:43 10° SE daylight
01 Aug - 18:14:00 10° WSW 18:22:48 25° SSW 18:35:46 10° SSE daylight
02 Aug - 11:35:40 10° SW 11:40:01 41° SSE 11:46:08 10° E daylight
02 Aug - 13:54:19 10° W 14:00:02 57° S 14:10:03 10° ESE daylight
02 Aug - 16:13:45 10° W 16:21:19 39° SSW 16:34:25 10° SE daylight
02 Aug - 18:36:24 10° WSW 18:44:02 18° SSW 18:54:18 10° S daylight
03 Aug - 09:38:53 10° S 09:41:33 15° SSE 09:44:22 10° ESE daylight
03 Aug - 11:56:16 10° WSW 12:00:47 48° SSE 12:07:22 10° E daylight
03 Aug - 14:15:08 10° W 14:20:59 52° S 14:31:15 10° ESE daylight
03 Aug - 16:34:56 10° W 16:42:26 32° SSW 16:54:45 10° SSE daylight
03 Aug - 19:00:31 10° SW 19:05:17 12° SSW 19:10:54 10° SSW daylight
04 Aug - 09:58:42 10° SSW 10:02:12 22° SSE 10:05:59 10° ESE daylight
04 Aug - 12:16:57 10° WSW 12:21:36 52° S 12:28:34 10° E daylight
04 Aug - 14:35:59 10° W 14:41:57 46° SSW 14:52:17 10° SE daylight
04 Aug - 16:56:25 10° WSW 17:03:35 25° SSW 17:14:34 10° SSE daylight
05 Aug - 10:19:00 10° SW 10:22:53 30° SSE 10:27:17 10° E daylight
05 Aug - 12:37:43 10° WSW 12:42:26 53° S 12:49:44 10° ESE daylight
05 Aug - 14:56:55 10° W 15:02:57 39° SSW 15:13:07 10° SE daylight
05 Aug - 17:18:24 10° WSW 17:24:45 19° SSW 17:33:39 10° S daylight
06 Aug - 08:22:44 10° S 08:24:15 11° SSE 08:25:42 10° SE daylight
06 Aug - 10:39:31 10° SW 10:43:37 38° SSE 10:48:26 10° E daylight
06 Aug - 12:58:30 10° W 13:03:19 50° S 13:10:51 10° ESE daylight
06 Aug - 15:18:00 10° W 15:23:58 31° SSW 15:33:38 10° SE daylight
06 Aug - 17:41:37 10° SW 17:45:59 13° SSW 17:51:18 10° S daylight
07 Aug - 08:41:50 10° SSW 08:44:59 17° SSE 08:47:56 10° ESE daylight
07 Aug - 11:00:11 10° WSW 11:04:23 44° S 11:09:32 10° E daylight
07 Aug - 13:19:20 10° W 13:24:13 45° S 13:31:52 10° ESE daylight
07 Aug - 15:39:19 10° WSW 15:45:02 25° SSW 15:53:43 10° SSE daylight
08 Aug - 09:01:53 10° SW 09:05:45 24° SSE 09:09:21 10° ESE daylight
08 Aug - 11:20:57 10° WSW 11:25:11 48° S 11:30:35 10° ESE daylight
08 Aug - 13:40:15 10° W 13:45:08 38° SSW 13:52:44 10° SE daylight
08 Aug - 16:01:03 10° WSW 16:06:08 18° SSW 16:13:11 10° SSE daylight
09 Aug - 07:06:16 10° SSE 07:06:43 10° SSE 07:07:10 10° SSE daylight
09 Aug - 09:22:17 10° SW 09:26:31 31° SSE 09:30:30 10° ESE daylight
09 Aug - 11:41:45 10° WSW 11:46:01 47° S 11:51:36 10° ESE daylight
09 Aug - 14:01:16 10° WSW 14:06:04 30° SSW 14:13:21 10° SE daylight
09 Aug - 16:23:50 10° SW 16:27:16 13° SSW 16:31:24 10° S daylight
10 Aug - 07:24:10 10° SSW 07:27:36 16° SSE 07:30:30 10° ESE daylight
10 Aug - 09:42:56 10° WSW 09:47:18 38° S 09:51:31 10° E daylight
10 Aug - 12:02:36 10° WSW 12:06:52 43° S 12:12:33 10° ESE daylight
10 Aug - 14:22:28 10° WSW 14:27:02 24° SSW 14:33:37 10° SSE daylight
